[[{"header":{"parameterUnit":"m.s-1","parameterCategory":1,"la1":30.2991,"la2":30.254,"lo1":-89.0895,"lo2":-89.0444,"dy":0.0017,"dx":0.0017,"nx":28,"ny":28,"refTime":"2024-07-15T21:00:00:Z","depth":0,"parameterNumber":2,"parameterNumberName":"U-component_of_WINDS"},"data":[0,0,0,0,0,0,0,0,0,0,0,0,0,0,0,0,0,0,0,0,0,0,0,0,0,0,0,0,0,0,0,0,0,0,0,0,0,0,0,0,0,0,0,0,0,0,0,0,0,0,0,0,0,0,0,0,0,0,0.1115,0.1115,0,0.1113,0.1113,0.1113,0.1139,0.114,0.1141,0.1141,0.1138,0.1137,0.1136,0,0,0,0,0,0,0,0,0,0,0,0,0,0.1143,0.1142,0.1115,0.1115,0.1115,0.1113,0.1113,0.1113,0.1139,0.114,0.1141,0.1142,0.1138,0.1137,0.1136,0,0,0,0,0,0,0,0,0,0,0,0,0,0.1134,0.1142,0.1115,0.1128,0.1129,0.1113,0.1113,0.1113,0.1139,0.114,0.1141,0.1142,0.1138,0.1137,0.1136,0.1107,0,0,0.1133,0.1132,0,0,0,0,0,0,0,0,0.1135,0.1133,0.1126,0.1127,0.1128,0.1127,0.1121,0.1111,0.1138,0.1135,0.1141,0.1143,0.1133,0.1133,0.113,0.1107,0.1107,0.1132,0.1132,0.1131,0.1131,0,0,0,0,0,0,0,0.1135,0.1134,0.1114,0.1126,0.1127,0.1134,0.1134,0.1119,0.1128,0.1135,0.1137,0.1137,0.1134,0.1131,0.113,0.1107,0.1132,0.1131,0.1131,0.113,0.1061,0.106,0,0,0,0,0,0,0.1134,0.1134,0.1114,0.1114,0.1134,0.1132,0.1132,0.1126,0.1128,0.113,0.1136,0.1138,0.1132,0.1131,0.113,0.1096,0.1131,0.113,0.113,0.1062,0.1061,0.1059,0,0,0,0,0,0,0.1135,0.1132,0.1114,0.1124,0.1123,0.1131,0.1124,0.1126,0.1123,0.1129,0.113,0.1131,0.1133,0.1132,0.1113,0.1097,0.113,0.1129,0.1063,0.1062,0.106,0.1029,0,0,0,0,0,0,0.1135,0.1132,0.1121,0.1124,0.1122,0.1097,0.1123,0.1125,0.1121,0.1123,0.1124,0.1125,0.1134,0.1114,0.1112,0.1096,0.1128,0.1065,0.1063,0.1061,0.1031,0.1026,0.1022,0,0,0,0,0,0.1136,0.1112,0.112,0.1118,0.1108,0.1096,0.1095,0.1105,0.1119,0.1108,0.1112,0.1125,0.1099,0.1112,0.1109,0.1093,0.1066,0.1063,0.1061,0.1033,0.1027,0.1022,0,0,0,0,0,0,0.1106,0.1112,0.1122,0.1098,0.1096,0.11,0.1087,0.1098,0.1092,0.1095,0.1108,0.1108,0.1087,0.1088,0.1103,0.1065,0.1085,0.1082,0.1065,0.1059,0.1055,0.1054,0.1127,0,0,0,0,0,0.1096,0.1086,0.1092,0.107,0.1069,0.1078,0.1073,0.1081,0.108,0.1079,0.1082,0.108,0.1072,0.1066,0.1058,0.1032,0.1033,0.1019,0.1015,0.1011,0.1007,0.0994,0.0988,0.1051,0.1051,0.1051,0,0,0.1076,0.1079,0.1071,0.1064,0.1064,0.1053,0.1077,0.1064,0.1056,0.1077,0.106,0.1062,0.1061,0.1039,0.1029,0.1039,0.0991,0.1007,0.1004,0.1003,0.0991,0.0985,0.098,0.1049,0.1049,0.105,0,0,0.1035,0.1035,0.1018,0.1017,0.1017,0.1024,0.1019,0.1022,0.1025,0.1008,0.1024,0.1014,0.0999,0.0998,0.0995,0.0955,0.0967,0.0952,0.0927,0.0914,0.0909,0.0905,0.0891,0.0885,0.0949,0.0949,0.0949,0,0.101,0.0994,0.1007,0.0993,0.099,0.101,0.0992,0.0991,0.0988,0.0985,0.0997,0.0979,0.098,0.0957,0.0948,0.0945,0.0941,0.0952,0.0909,0.0905,0.0901,0.0888,0.0882,0.0947,0.0948,0.0948,0.0948,0,0.0964,0.0952,0.0938,0.0936,0.0931,0.0915,0.0926,0.092,0.0929,0.0934,0.0917,0.0919,0.0912,0.0908,0.0916,0.0887,0.0894,0.0907,0.0927,0.0893,0.0881,0.0876,0.0945,0.0945,0.0946,0.0946,0,0,0.09,0.0907,0.0901,0.0901,0.0903,0.0895,0.0881,0.0875,0.0869,0.0867,0.0855,0.0843,0.0856,0.0853,0.0862,0.085,0.0819,0.0865,0.0866,0.0856,0.0787,0.0777,0.077,0.0827,0.0827,0.0826,0.0787,0,0.086,0.0836,0.0848,0.0822,0.0812,0.0832,0.082,0.082,0.0825,0.0817,0.0823,0.0814,0.0831,0.083,0.082,0.0825,0.0805,0.0828,0.0816,0.0816,0.0815,0.0764,0.0752,0.0716,0.0782,0.0782,0.0781,0,0.0808,0.0805,0.0779,0.0784,0.078,0.0769,0.0765,0.0758,0.0759,0.0763,0.0761,0.0773,0.076,0.078,0.0762,0.0777,0.0774,0.0776,0.0775,0.0773,0.0796,0.0761,0.0704,0.0699,0.0773,0.0774,0.0775,0,0.0765,0.0754,0.0737,0.0736,0.0742,0.0733,0.0735,0.0737,0.0733,0.073,0.0728,0.0723,0.0721,0.0717,0.0727,0.0741,0.0708,0.0729,0.0711,0.0711,0.0702,0.0703,0.0644,0.0701,0.0701,0.0701,0.0701,0,0.0717,0.07,0.0718,0.0707,0.0689,0.0704,0.0685,0.0689,0.0691,0.0682,0.0699,0.069,0.0705,0.0697,0.0706,0.069,0.0688,0.0692,0.0694,0.069,0.0689,0.0687,0.0689,0.07,0.07,0.07,0.0701,0,0.0665,0.0676,0.0659,0.0666,0.0668,0.0654,0.066,0.0651,0.0658,0.0646,0.0644,0.0655,0.0647,0.0658,0.0651,0.0657,0.0635,0.0641,0.0634,0.0636,0.0617,0.0619,0.0554,0.0547,0.0609,0.0608,0.0608,0,0.0634,0.0621,0.0628,0.0623,0.0624,0.0617,0.0613,0.0628,0.0623,0.0625,0.0615,0.0609,0.0605,0.0592,0.0599,0.0594,0.06,0.0578,0.0599,0.0596,0.0599,0.06,0.0599,0.0573,0.0572,0.0572,0.0571,0,0.0577,0.0583,0.0578,0.0575,0.0571,0.0569,0.0568,0.0563,0.0579,0.0573,0.0566,0.0563,0.0557,0.055,0.0548,0.055,0.0563,0.0565,0.056,0.0555,0.0552,0.0553,0.0622,0.0566,0.0566,0.0567,0.0567,0.0567,0.0534,0.0524,0.0528,0.0521,0.0523,0.0522,0.0514,0.0521,0.0515,0.0511,0.0521,0.0511,0.0514,0.0512,0.0512,0.0505,0.0515,0.0508,0.0507,0.0505,0.0502,0.0554,0.0505,0.0505,0.0505,0.0505,0.0506,0,0.0478,0.0481,0.0476,0.0475,0.047,0.0485,0.0485,0.048,0.0472,0.0473,0.0469,0.0461,0.0456,0.0463,0.0459,0.0452,0.0458,0.045,0.0451,0.0451,0.0493,0.0498,0.0446,0.0446,0.0446,0.0446,0.0446,0.0446,0.0448,0.0432,0.044,0.0425,0.0429,0.0421,0.042,0.0419,0.0421,0.0411,0.0407,0.0413,0.0417,0.0413,0.0409,0.0411,0.0409,0.0399,0.0403,0.0442,0.0448,0.0454,0.0458,0.0398,0.0398,0.0361,0.0361,0.0361]},{"header":{"parameterUnit":"m.s-1","parameterCategory":1,"la1":30.2991,"la2":30.254,"lo1":-89.0895,"lo2":-89.0444,"dy":0.0017,"dx":0.0017,"nx":28,"ny":28,"refTime":"2024-07-15T21:00:00:Z","depth":0,"parameterNumber":3,"parameterNumberName":"V-component_of_WINDS"},"data":[0,0,0,0,0,0,0,0,0,0,0,0,0,0,0,0,0,0,0,0,0,0,0,0,0,0,0,0,0,0,0,0,0,0,0,0,0,0,0,0,0,0,0,0,0,0,0,0,0,0,0,0,0,0,0,0,0,0,-0.1544,-0.1544,0,-0.1551,-0.1551,-0.1551,-0.1532,-0.1532,-0.1531,-0.153,-0.1538,-0.1539,-0.1539,0,0,0,0,0,0,0,0,0,0,0,0,0,-0.1515,-0.1516,-0.1544,-0.1544,-0.1544,-0.1551,-0.1551,-0.1551,-0.1532,-0.1531,-0.1531,-0.153,-0.1538,-0.1539,-0.1539,0,0,0,0,0,0,0,0,0,0,0,0,0,-0.1525,-0.1516,-0.1544,-0.1535,-0.1535,-0.1551,-0.1551,-0.1551,-0.1532,-0.1531,-0.1531,-0.153,-0.1537,-0.1538,-0.154,-0.1564,0,0,-0.1543,-0.1544,0,0,0,0,0,0,0,0,-0.1525,-0.1527,-0.1537,-0.1536,-0.1535,-0.154,-0.1544,-0.1556,-0.1533,-0.1533,-0.153,-0.1529,-0.1539,-0.154,-0.1543,-0.1565,-0.1565,-0.1543,-0.1544,-0.1544,-0.1545,0,0,0,0,0,0,0,-0.1524,-0.1526,-0.1547,-0.1537,-0.1536,-0.1532,-0.1532,-0.1546,-0.1541,-0.1533,-0.1532,-0.1533,-0.1539,-0.1542,-0.1544,-0.1565,-0.1543,-0.1544,-0.1545,-0.1545,-0.1609,-0.161,0,0,0,0,0,0,-0.1524,-0.1526,-0.1546,-0.1547,-0.1528,-0.1533,-0.1533,-0.1539,-0.1541,-0.154,-0.1534,-0.1532,-0.1541,-0.1542,-0.1544,-0.1574,-0.1544,-0.1545,-0.1546,-0.1608,-0.1609,-0.161,0,0,0,0,0,0,-0.1524,-0.1526,-0.1546,-0.1536,-0.1538,-0.1534,-0.1541,-0.154,-0.1543,-0.1541,-0.154,-0.1538,-0.154,-0.1542,-0.156,-0.1574,-0.1546,-0.1547,-0.1607,-0.1608,-0.161,-0.1634,0,0,0,0,0,0,-0.1523,-0.1526,-0.1535,-0.1536,-0.1539,-0.1562,-0.1542,-0.1541,-0.1545,-0.1543,-0.1545,-0.1545,-0.154,-0.1558,-0.1561,-0.1575,-0.1548,-0.1605,-0.1607,-0.1609,-0.1632,-0.1637,-0.164,0,0,0,0,0,-0.1522,-0.1542,-0.1536,-0.1539,-0.155,-0.1563,-0.1564,-0.1558,-0.1547,-0.1556,-0.1555,-0.1545,-0.1572,-0.156,-0.1563,-0.1578,-0.1604,-0.1607,-0.1609,-0.1631,-0.1636,-0.164,0,0,0,0,0,0,-0.1543,-0.1542,-0.1535,-0.1556,-0.1559,-0.1559,-0.1571,-0.1563,-0.157,-0.1568,-0.156,-0.156,-0.158,-0.158,-0.1567,-0.1603,-0.1586,-0.1589,-0.1602,-0.1607,-0.1611,-0.1611,-0.1549,0,0,0,0,0,-0.155,-0.156,-0.1558,-0.1577,-0.1579,-0.1575,-0.158,-0.1575,-0.1578,-0.158,-0.158,-0.1584,-0.1594,-0.16,-0.1608,-0.1632,-0.1633,-0.1644,-0.1648,-0.1651,-0.1654,-0.1668,-0.1673,-0.1618,-0.1618,-0.1617,0,0,-0.1564,-0.1565,-0.1572,-0.1581,-0.1583,-0.1595,-0.1576,-0.1588,-0.1597,-0.1582,-0.1599,-0.1599,-0.1603,-0.1624,-0.1634,-0.1625,-0.167,-0.1654,-0.1656,-0.1658,-0.1671,-0.1676,-0.1681,-0.1619,-0.1619,-0.1619,0,0,-0.1596,-0.1597,-0.1613,-0.1616,-0.162,-0.1617,-0.1621,-0.1623,-0.1622,-0.1639,-0.1628,-0.1638,-0.1655,-0.1658,-0.1663,-0.1697,-0.1689,-0.17,-0.1722,-0.1735,-0.174,-0.1744,-0.1758,-0.1762,-0.1703,-0.1703,-0.1703,0,-0.1614,-0.163,-0.1622,-0.1636,-0.1641,-0.1628,-0.1645,-0.1648,-0.1654,-0.1658,-0.1649,-0.167,-0.1671,-0.1694,-0.1703,-0.1706,-0.1711,-0.1701,-0.174,-0.1743,-0.1747,-0.176,-0.1765,-0.1705,-0.1705,-0.1704,-0.1704,0,-0.1652,-0.1664,-0.1676,-0.1683,-0.169,-0.1705,-0.17,-0.1707,-0.1702,-0.17,-0.1718,-0.172,-0.1729,-0.1734,-0.1728,-0.1756,-0.1751,-0.1741,-0.1725,-0.1754,-0.1766,-0.1771,-0.1707,-0.1706,-0.1706,-0.1705,0,0,-0.1697,-0.1701,-0.1706,-0.1709,-0.1713,-0.1722,-0.1737,-0.1746,-0.1753,-0.1758,-0.1771,-0.1786,-0.1777,-0.1781,-0.1776,-0.1788,-0.1818,-0.1776,-0.1776,-0.1785,-0.185,-0.1859,-0.1865,-0.1812,-0.1813,-0.1813,-0.185,0,-0.173,-0.1756,-0.175,-0.1776,-0.1787,-0.1775,-0.1788,-0.1793,-0.1792,-0.1802,-0.1801,-0.1812,-0.1798,-0.1801,-0.1812,-0.1812,-0.1831,-0.1809,-0.1825,-0.1825,-0.1825,-0.1871,-0.188,-0.1915,-0.1855,-0.1856,-0.1856,0,-0.1772,-0.178,-0.1806,-0.181,-0.1814,-0.1826,-0.1835,-0.1844,-0.1849,-0.1848,-0.1853,-0.1846,-0.1862,-0.1845,-0.1867,-0.1852,-0.1858,-0.1859,-0.186,-0.1862,-0.1843,-0.1876,-0.1926,-0.1932,-0.1864,-0.1863,-0.1862,0,-0.1804,-0.1821,-0.1839,-0.1843,-0.1846,-0.1855,-0.1857,-0.1861,-0.1868,-0.1875,-0.188,-0.1889,-0.1894,-0.1902,-0.1898,-0.1886,-0.1921,-0.1903,-0.1922,-0.1922,-0.193,-0.193,-0.1983,-0.1932,-0.1932,-0.1932,-0.1932,0,-0.1843,-0.186,-0.1854,-0.1866,-0.1885,-0.1878,-0.1898,-0.1899,-0.1902,-0.1914,-0.1904,-0.1916,-0.1909,-0.192,-0.1917,-0.1937,-0.1939,-0.1939,-0.1938,-0.194,-0.1941,-0.1945,-0.1943,-0.1934,-0.1933,-0.1933,-0.1933,0,-0.1882,-0.1879,-0.1899,-0.1901,-0.1902,-0.1916,-0.1918,-0.193,-0.1928,-0.1943,-0.1947,-0.1945,-0.1957,-0.1954,-0.1968,-0.1966,-0.1991,-0.1986,-0.199,-0.1989,-0.2008,-0.2007,-0.2067,-0.2075,-0.2017,-0.2018,-0.2018,0,-0.1907,-0.1921,-0.1924,-0.1932,-0.1935,-0.1946,-0.1953,-0.1947,-0.1955,-0.1962,-0.1973,-0.1985,-0.1994,-0.2015,-0.2015,-0.2026,-0.2022,-0.2043,-0.2024,-0.2027,-0.2024,-0.2024,-0.2026,-0.2047,-0.2048,-0.2048,-0.2049,0,-0.1953,-0.1951,-0.1961,-0.1971,-0.1979,-0.1987,-0.1993,-0.2,-0.1995,-0.2004,-0.2017,-0.2024,-0.2039,-0.2051,-0.2061,-0.2064,-0.2056,-0.2054,-0.2059,-0.2063,-0.2065,-0.2065,-0.2001,-0.2053,-0.2053,-0.2052,-0.2052,-0.2052,-0.1987,-0.1999,-0.2004,-0.2016,-0.202,-0.2027,-0.2038,-0.2038,-0.2049,-0.206,-0.2056,-0.2072,-0.2077,-0.209,-0.2094,-0.2106,-0.2099,-0.2105,-0.2107,-0.211,-0.2113,-0.2062,-0.2108,-0.2108,-0.2108,-0.2107,-0.2107,0,-0.2033,-0.2036,-0.2047,-0.2057,-0.2067,-0.2058,-0.2065,-0.2074,-0.2088,-0.2093,-0.2103,-0.2119,-0.2131,-0.2132,-0.2144,-0.2154,-0.2151,-0.2157,-0.2157,-0.2158,-0.2118,-0.2113,-0.216,-0.216,-0.216,-0.216,-0.216,-0.216,-0.2059,-0.2078,-0.2077,-0.21,-0.2102,-0.2117,-0.2122,-0.2129,-0.2134,-0.2152,-0.2162,-0.2163,-0.2167,-0.2179,-0.2191,-0.2191,-0.2196,-0.2205,-0.2204,-0.2166,-0.2161,-0.2156,-0.2151,-0.2206,-0.2206,-0.2243,-0.2243,-0.2243]}]]